Weather History for Grafenwoehr, Germany

Change the Weather History Date:

Saturday, October 27, 2012

  Actual Average Record
Temperature  
Mean Temperature 34 °F -  
Max Temperature 37 °F - - ()
Min Temperature 30 °F - - ()
Degree Days  
Heating Degree Days 32    
Moisture  
Dew Point 31 °F    
Average Humidity 94    
Maximum Humidity 100    
Minimum Humidity 75    
Precipitation  
Precipitation 0.27 in - - ()
Sea Level Pressure  
Sea Level Pressure 29.43 in    
Wind  
Wind Speed 4 mph ()    
Max Wind Speed 7 mph    
Max Gust Speed -    
Visibility 5.0 miles    
Events Rain , Snow    
T = Trace of Precipitation, MM = Missing Value Source: Averaged Metar Reports

Daily Weather History Graph

Daily Weather History Graph

Search for Another Location

Airport:

Trip Planner

Search our weather history database for the weather conditions in past years. The results will help you decide how hot, cold, wet, or windy it might be!

Date:

Astronomy

Oct. 27, 2012 Rise Set
Actual Time 7:53 AM CEST 5:57 PM CEST
Civil Twilight 7:20 AM CEST 6:31 PM CEST
Nautical Twilight 6:42 AM CEST 7:08 PM CEST
Astronomical Twilight 6:05 AM CEST 7:45 PM CEST
Moon 4:42 PM CEST 5:22 AM CEST
Length of Visible Light 11h 11m
Length of Day
10h 04m
Waxing Gibbous, 95% of the Moon is Illuminated
Oct 27
Waxing Gibbous
Oct 29
Full
Nov 7
Last Quarter
Nov 13
New
Nov 20
First Quarter

Hourly Weather History & Observations

Time (CEST) Temp. Windchill Dew Point Humidity Pressure Visibility Wind Dir Wind Speed Gust Speed Precip Events Conditions
12:58 AM 37.9 °F 34.4 °F 34.7 °F 88% 29.50 in 6.2 mi Variable 4.6 mph - N/A   Overcast
1:41 AM 37.4 °F 34.9 °F 35.6 °F 93% 29.43 in 6.2 mi Variable 3.5 mph - N/A   Overcast
1:58 AM 37.4 °F 34.9 °F 34.5 °F 89% 29.47 in 6.2 mi Variable 3.5 mph - N/A   Overcast
2:12 AM 37.4 °F 32.1 °F 33.8 °F 87% 29.41 in 6.2 mi NE 6.9 mph - N/A   Overcast
2:50 AM 37.4 °F - 33.8 °F 87% 29.39 in 6.2 mi Variable 2.3 mph - N/A   Overcast
2:52 AM 37.4 °F - 33.8 °F 87% 29.39 in 6.2 mi Variable 2.3 mph - N/A   Overcast
2:58 AM 36.7 °F 34.1 °F 34.3 °F 91% 29.43 in 6.2 mi Variable 3.5 mph - 0.00 in   Light Drizzle
3:40 AM 35.6 °F - 35.6 °F 100% 29.37 in 6.2 mi Variable 2.3 mph - N/A   Light Drizzle
3:58 AM 36.1 °F - 34.7 °F 94% 29.41 in 6.2 mi Variable 2.3 mph - 0.00 in   Light Drizzle
4:03 AM 35.6 °F - 33.8 °F 93% 29.36 in 6.2 mi Variable 1.2 mph - N/A Rain Light Rain
4:29 AM 35.6 °F - 33.8 °F 93% 29.35 in 6.2 mi Variable 1.2 mph - N/A Rain Light Rain
4:52 AM 33.8 °F - 32.0 °F 93% 29.34 in 5.6 mi Variable 1.2 mph - N/A Rain Light Rain
4:58 AM 34.3 °F - 33.3 °F 96% 29.38 in 5.0 mi Variable 2.3 mph - 0.02 in Rain Light Rain
5:00 AM 33.8 °F - 32.0 °F 93% 29.33 in 5.0 mi Variable 1.2 mph - N/A Rain Light Rain
5:58 AM 33.6 °F - 32.9 °F 97% 29.31 in 3.1 mi Variable 2.3 mph - 0.02 in Snow Light Snow
6:08 AM 32.0 °F 28.7 °F 32.0 °F 100% 29.32 in 2.5 mi Variable 3.5 mph - N/A Snow Light Snow
6:22 AM 32.0 °F 28.7 °F 32.0 °F 100% 29.31 in 3.1 mi Variable 3.5 mph - N/A Snow Light Snow
6:46 AM 32.0 °F 27.5 °F 32.0 °F 100% 29.30 in 2.5 mi Variable 4.6 mph - N/A Snow Light Snow
6:58 AM 32.9 °F - 32.5 °F 99% 29.30 in 2.5 mi Variable 2.3 mph - 0.05 in Snow Light Snow
7:04 AM 32.0 °F 27.5 °F 32.0 °F 100% 29.30 in - North 4.6 mph - N/A Snow Light Snow
7:11 AM 32.0 °F - 32.0 °F 100% 29.29 in 2.5 mi Variable 1.2 mph - N/A Snow Light Snow
7:21 AM 32.0 °F 28.7 °F 32.0 °F 100% 29.29 in 3.1 mi Variable 3.5 mph - N/A Snow Light Snow
7:53 AM 32.0 °F - 32.0 °F 100% 29.29 in 2.5 mi Variable 1.2 mph - N/A Snow Light Snow
7:58 AM 33.3 °F 30.2 °F 32.5 °F 97% 29.29 in - Variable 3.5 mph - 0.05 in Snow Light Snow
8:00 AM 32.0 °F - 32.0 °F 100% 29.29 in 2.5 mi Variable 1.2 mph - N/A Snow Light Snow
8:10 AM 32.0 °F 28.7 °F 32.0 °F 100% 29.29 in - Variable 3.5 mph - N/A Snow Light Snow
8:35 AM 32.0 °F - 32.0 °F 100% 29.30 in 2.5 mi NNW 2.3 mph - N/A Snow Light Snow
8:48 AM 32.0 °F - 32.0 °F 100% 29.30 in - Variable 2.3 mph - N/A Snow Light Snow
8:58 AM 33.3 °F - 32.7 °F 98% 29.36 in - NNW 2.3 mph - 0.06 in Snow Light Snow
9:07 AM 32.0 °F - 32.0 °F 100% 29.30 in 1.7 mi Variable 2.3 mph - N/A Snow Light Snow
9:22 AM 32.0 °F 27.5 °F 32.0 °F 100% 29.31 in - NNW 4.6 mph - N/A Snow Light Snow
9:38 AM 32.0 °F 27.5 °F 32.0 °F 100% 29.30 in - Variable 4.6 mph - N/A Snow Light Snow
9:47 AM 32.0 °F 27.5 °F 32.0 °F 100% 29.31 in 2.5 mi NNW 4.6 mph - N/A Snow Light Snow
9:53 AM 32.0 °F 27.5 °F 32.0 °F 100% 29.30 in - North 4.6 mph - N/A Snow Light Snow
9:58 AM 33.1 °F 28.7 °F 32.5 °F 98% 29.37 in - Variable 4.6 mph - 0.04 in Snow Light Snow
10:11 AM 32.0 °F - 32.0 °F 100% 29.31 in 2.5 mi Variable 2.3 mph - N/A Snow Light Snow
10:31 AM 32.0 °F 25.6 °F 32.0 °F 100% 29.31 in 3.1 mi North 6.9 mph - N/A Snow Light Snow
10:46 AM 32.0 °F 27.5 °F 32.0 °F 100% 29.32 in 2.5 mi Variable 4.6 mph - N/A Snow Light Snow
10:55 AM 32.0 °F 27.5 °F 32.0 °F 100% 29.32 in 3.1 mi Variable 4.6 mph - N/A Snow Light Snow
10:58 AM 33.3 °F 27.1 °F 31.8 °F 94% 29.38 in 3.1 mi Variable 6.9 mph - 0.02 in Snow Light Snow
11:22 AM 32.0 °F 27.5 °F 32.0 °F 100% 29.33 in 5.6 mi Variable 4.6 mph - N/A Snow Light Snow
11:33 AM 32.0 °F 26.4 °F 32.0 °F 100% 29.34 in 6.2 mi Variable 5.8 mph - N/A Rain Light Rain
11:53 AM 32.0 °F 28.7 °F 32.0 °F 100% 29.35 in 6.2 mi Variable 3.5 mph - N/A Snow Light Snow
11:58 AM 33.6 °F 28.4 °F 31.5 °F 92% 29.41 in 5.0 mi Variable 5.8 mph - 0.01 in Snow Light Snow
12:00 PM 32.0 °F 26.4 °F 32.0 °F 100% 29.35 in 5.0 mi Variable 5.8 mph - N/A Snow Light Snow
12:09 PM 32.0 °F 28.7 °F 32.0 °F 100% 29.36 in 2.5 mi NNW 3.5 mph - N/A Snow Light Snow
12:18 PM 32.0 °F 27.5 °F 32.0 °F 100% 29.36 in 3.1 mi NNW 4.6 mph - N/A Snow Light Snow
12:38 PM 32.0 °F 27.5 °F 32.0 °F 100% 29.37 in 6.2 mi Variable 4.6 mph - N/A Rain Light Rain
12:39 PM 32.0 °F 27.5 °F 32.0 °F 100% 29.37 in 6.2 mi Variable 4.6 mph - N/A Rain Light Rain
12:45 PM 32.0 °F 27.5 °F 32.0 °F 100% 29.37 in 6.2 mi Variable 4.6 mph - N/A Rain Light Rain
12:56 PM 32.0 °F 28.7 °F 32.0 °F 100% 29.37 in 6.2 mi Variable 3.5 mph - N/A Rain Light Rain
12:58 PM 33.4 °F 30.4 °F 31.3 °F 92% 29.43 in 6.2 mi Variable 3.5 mph - 0.00 in Rain Light Rain
1:11 PM 32.0 °F 27.5 °F 32.0 °F 100% 29.37 in 6.2 mi Variable 4.6 mph - N/A   Mostly Cloudy
1:27 PM 32.0 °F 25.6 °F 32.0 °F 100% 29.38 in 6.2 mi Variable 6.9 mph - N/A   Overcast
1:58 PM 33.6 °F 27.5 °F 30.4 °F 88% 29.45 in 6.2 mi North 6.9 mph - 0.00 in   Mostly Cloudy
2:01 PM 32.0 °F 27.5 °F 30.2 °F 93% 29.39 in 6.2 mi Variable 4.6 mph - N/A   Overcast
2:58 PM 33.6 °F 28.4 °F 29.7 °F 85% 29.48 in 6.2 mi Variable 5.8 mph - 0.00 in Rain Light Rain
3:58 PM 33.1 °F 27.7 °F 28.0 °F 82% 29.51 in 6.2 mi Variable 5.8 mph - 0.00 in Rain Light Rain
4:38 PM 32.0 °F 25.6 °F 28.4 °F 87% 29.49 in 6.2 mi Variable 6.9 mph - N/A   Mostly Cloudy
4:58 PM 32.9 °F 26.7 °F 27.5 °F 81% 29.57 in 6.2 mi Variable 6.9 mph - 0.00 in Rain Light Rain
5:58 PM 31.6 °F 26.0 °F 27.9 °F 86% 29.62 in 5.0 mi NNW 5.8 mph - 0.00 in   Overcast
6:34 PM 32.0 °F - 28.4 °F 87% 29.58 in 5.0 mi Variable 2.3 mph - N/A Snow Light Snow
6:58 PM 31.1 °F 25.4 °F 28.0 °F 88% 29.67 in 6.2 mi Variable 5.8 mph - 0.00 in   Mostly Cloudy
7:02 PM 32.0 °F 27.5 °F 28.4 °F 87% 29.60 in 6.2 mi Variable 4.6 mph - N/A Snow Light Snow
7:39 PM 32.0 °F 26.4 °F 28.4 °F 87% 29.63 in 5.0 mi Variable 5.8 mph - N/A Snow Light Snow
7:40 PM 32.0 °F 26.4 °F 28.4 °F 87% 29.63 in 5.0 mi NNW 5.8 mph - N/A Snow Light Snow
7:58 PM 30.7 °F 26.0 °F 28.2 °F 90% 29.71 in 5.6 mi NNW 4.6 mph - 0.00 in Snow Light Snow
8:12 PM 32.0 °F 26.4 °F 26.6 °F 80% 29.64 in 6.2 mi Variable 5.8 mph - N/A   Mostly Cloudy
8:19 PM 32.0 °F 27.5 °F 26.6 °F 80% 29.65 in 6.2 mi Variable 4.6 mph - N/A   Scattered Clouds
8:42 PM 32.0 °F 25.6 °F 28.4 °F 87% 29.66 in 6.2 mi Variable 6.9 mph - N/A   Mostly Cloudy
8:58 PM 30.7 °F 24.9 °F 27.9 °F 89% 29.73 in 5.0 mi North 5.8 mph - 0.00 in Snow Light Snow
9:35 PM 32.0 °F 26.4 °F 28.4 °F 87% 29.67 in 6.2 mi Variable 5.8 mph - N/A   Scattered Clouds
9:50 PM 32.0 °F 25.6 °F 26.6 °F 80% 29.68 in 6.2 mi North 6.9 mph - N/A   Partly Cloudy
9:58 PM 30.9 °F 24.3 °F 26.2 °F 83% 29.75 in 6.2 mi Variable 6.9 mph - 0.00 in   Partly Cloudy
10:58 PM 30.9 °F 27.5 °F 25.0 °F 79% 29.77 in 6.2 mi Variable 3.5 mph - N/A   Clear
11:27 PM 32.0 °F 26.4 °F 24.8 °F 75% 29.69 in 6.2 mi NNW 5.8 mph - N/A   Clear
11:58 PM 30.7 °F 26.0 °F 26.6 °F 85% 29.78 in 6.2 mi NW 4.6 mph - 0.00 in Snow Light Snow